GW2632 Weather Reports


Display with metric or nautical units.
time (UTC)temp
F
wind
direction
speed
MPH
gust
MPH
rain 1hr
in
rain 24hr
in
rain mn
in
humidity
%
barometer
mb
20260503230837 74 18 1.0 9.0 0.00 0.04 0.04 60 1015.8
20260503230334 75 126 2.0 6.0 0.00 0.04 0.04 59 1016.0
20260503225832 74 83 5.0 7.0 0.00 0.04 0.04 60 1016.0
20260503225328 74 13 3.0 6.0 0.00 0.04 0.04 60 1016.0
20260503224824 75 67 2.0 4.0 0.00 0.04 0.04 60 1016.0
20260503224321 75 355 2.0 8.0 0.00 0.04 0.04 59 1016.1
20260503223819 76 164 2.0 6.0 0.00 0.04 0.04 57 1016.0
20260503223317 75 314 1.0 4.0 0.00 0.04 0.04 59 1016.1
20260503222812 75 250 1.0 2.0 0.00 0.04 0.04 58 1016.0
20260503222311 75 92 3.0 4.0 0.00 0.04 0.04 58 1016.0
20260503221809 75 13 4.0 6.0 0.00 0.04 0.04 57 1015.9
20260503221307 76 156 2.0 7.0 0.00 0.04 0.04 56 1016.0
20260503220802 76 357 1.0 4.0 0.00 0.04 0.04 56 1015.9
20260503220259 76 338 3.0 3.0 0.00 0.04 0.04 55 1015.8
20260503215756 76 3 1.0 1.0 0.00 0.04 0.04 55 1015.6
20260503215253 76 299 2.0 4.0 0.00 0.04 0.04 54 1015.8
20260503214751 75 1 1.0 6.0 0.00 0.04 0.04 56 1016.0
20260503214248 76 80 2.0 6.0 0.00 0.04 0.04 55 1015.8
20260503213746 77 102 4.0 7.0 0.00 0.04 0.04 55 1015.8
20260503213243 77 356 4.0 4.0 0.00 0.04 0.04 52 1015.9
20260503212739 76 304 1.0 7.0 0.00 0.04 0.04 56 1015.8
20260503212237 76 359 2.0 3.0 0.00 0.04 0.04 55 1015.5
20260503211735 77 234 4.0 6.0 0.00 0.04 0.04 53 1015.8
20260503211231 77 37 1.0 4.0 0.00 0.04 0.04 53 1015.6
20260503210726 77 145 4.0 6.0 0.00 0.04 0.04 53 1015.7
20260503210224 76 68 4.0 6.0 0.00 0.04 0.04 55 1015.8
20260503205719 77 19 2.0 4.0 0.00 0.04 0.04 55 1015.7
20260503205216 77 341 1.0 2.0 0.00 0.04 0.04 56 1015.7
20260503204712 77 356 9.0 10.0 0.00 0.04 0.04 54 1015.7
20260503204210 76 25 1.0 3.0 0.00 0.04 0.04 56 1016.0
20260503203707 77 3 2.0 6.0 0.00 0.04 0.04 54 1016.0
20260503203205 77 333 2.0 7.0 0.00 0.04 0.04 55 1016.0
20260503202701 77 89 2.0 3.0 0.00 0.04 0.04 55 1015.9
20260503202159 78 3 0.0 2.0 0.00 0.04 0.04 55 1016.0
20260503201657 78 59 2.0 6.0 0.00 0.04 0.04 53 1016.0
20260503201155 78 137 4.0 6.0 0.00 0.04 0.04 54 1016.0
20260503200650 78 57 3.0 6.0 0.00 0.04 0.04 54 1016.0
20260503200147 78 76 3.0 7.0 0.00 0.04 0.04 52 1016.0
20260503195644 79 335 1.0 2.0 0.00 0.04 0.04 52 1015.9
20260503195141 79 178 0.0 4.0 0.00 0.04 0.04 53 1016.2
20260503194638 79 47 2.0 6.0 0.00 0.04 0.04 52 1016.2
20260503194133 80 336 4.0 4.0 0.00 0.04 0.04 50 1016.2
20260503193631 78 84 3.0 3.0 0.00 0.04 0.04 52 1016.4
20260503193126 77 2 1.0 9.0 0.00 0.04 0.04 56 1016.4
20260503192622 78 30 3.0 4.0 0.00 0.04 0.04 54 1016.6
20260503192117 78 125 4.0 6.0 0.00 0.04 0.04 53 1016.7
20260503191615 79 122 3.0 6.0 0.00 0.04 0.04 52 1017.0
20260503191111 79 345 1.0 4.0 0.00 0.04 0.04 52 1017.0
20260503190609 80 167 3.0 4.0 0.00 0.04 0.04 51 1016.9
20260503190106 79 313 6.0 10.0 0.00 0.04 0.04 51 1016.8
20260503185602 78 334 1.0 2.0 0.00 0.04 0.04 52 1016.8
20260503185102 78 5 6.0 8.0 0.00 0.04 0.04 52 1017.0
20260503184557 78 39 1.0 3.0 0.00 0.04 0.04 53 1017.1
20260503184054 78 7 0.0 2.0 0.00 0.04 0.04 55 1017.3
20260503183551 78 271 0.0 3.0 0.00 0.04 0.04 53 1017.0
20260503183048 79 141 4.0 6.0 0.00 0.04 0.04 54 1017.4
20260503182547 79 24 2.0 3.0 0.00 0.04 0.04 51 1017.4
20260503182044 79 345 1.0 6.0 0.00 0.04 0.04 53 1017.5
20260503181541 80 357 2.0 10.0 0.00 0.04 0.04 51 1017.7
20260503181037 79 328 1.0 3.0 0.00 0.04 0.04 54 1017.6
20260503180535 79 339 1.0 6.0 0.00 0.04 0.04 52 1017.6
20260503180032 79 297 2.0 4.0 0.00 0.04 0.04 53 1017.6
20260503175529 78 7 1.0 3.0 0.00 0.04 0.04 54 1017.4
20260503175026 78 347 1.0 4.0 0.00 0.04 0.04 53 1017.5
20260503174524 77 9 3.0 3.0 0.00 0.04 0.04 55 1017.5
20260503174020 78 355 4.0 4.0 0.00 0.04 0.04 52 1017.8
20260503173515 78 27 1.0 2.0 0.00 0.04 0.04 53 1017.7
20260503173011 78 331 0.0 3.0 0.00 0.04 0.04 53 1017.6
20260503172509 79 40 5.0 8.0 0.00 0.04 0.04 52 1017.7
20260503172006 79 313 2.0 4.0 0.00 0.04 0.04 52 1017.9
20260503171502 79 298 2.0 4.0 0.00 0.04 0.04 53 1017.9
20260503171000 78 330 2.0 3.0 0.00 0.04 0.04 57 1017.9
20260503170456 77 50 3.0 6.0 0.00 0.04 0.04 56 1018.0
20260503150848 71 9 2.0 10.0 0.00 0.04 0.04 69 1018.2
20260503150344 71 356 3.0 6.0 0.00 0.04 0.04 71 1018.3
20260503140309 69 345 1.0 1.0 0.00 0.04 0.04 80 1017.9
20260503131238 66 344 0.0 2.0 0.00 0.04 0.04 85 1017.4
20260503130736 66 347 0.0 2.0 0.00 0.04 0.04 86 1017.4
20260503130233 66 5 2.0 3.0 0.00 0.04 0.04 86 1017.4
20260503120159 64 357 1.0 2.0 0.00 0.04 0.04 91 1016.8
20260503110626 63 357 0.0 2.0 0.00 0.04 0.04 93 1016.1
20260503110124 63 349 2.0 2.0 0.00 0.04 0.04 93 1015.9
20260503081439 63 343 0.0 2.0 0.00 0.04 0.04 94 1014.8
20260503080937 64 335 0.0 6.0 0.00 0.04 0.04 94 1014.8
20260503080433 64 5 0.0 1.0 0.00 0.04 0.04 95 1014.8
20260503072909 64 344 0.0 0.0 0.00 0.04 0.04 95 1014.8
20260503072407 64 349 0.0 0.0 0.00 0.04 0.04 95 1014.9
20260503071903 64 24 0.0 0.0 0.00 0.04 0.04 95 1014.6
20260503071401 64 348 0.0 0.0 0.00 0.04 0.04 95 1014.8
20260503070856 64 4 0.0 1.0 0.00 0.04 0.04 95 1014.8
20260503070354 64 350 0.0 0.0 0.00 0.04 0.04 95 1014.6
20260503060320 64 338 0.0 2.0 0.00 0.04 0.04 95 1014.9
20260503054807 64 347 0.0 0.0 0.00 0.04 0.04 95 1015.4
20260503054303 64 344 0.0 0.0 0.00 0.04 0.04 95 1015.2
20260503053801 64 351 0.0 0.0 0.00 0.04 0.04 95 1015.3
20260503053300 64 277 0.0 1.0 0.07 0.04 0.04 95 1015.4
20260503052755 64 345 0.0 0.0 0.07 0.04 0.04 95 1015.4
20260503052253 64 351 0.0 1.0 0.00 0.03 0.03 95 1015.6
20260503051748 64 347 0.0 1.0 0.00 0.03 0.03 94 1015.4
20260503051246 64 338 0.0 0.0 0.00 0.03 0.03 95 1015.5
20260503050742 64 342 0.0 0.0 0.00 0.03 0.03 94 1015.2
20260503050238 65 351 0.0 0.0 0.00 0.03 0.03 94 1015.2
20260503045736 65 349 0.0 2.0 0.00 0.03 0.03 94 1015.2
20260503045234 65 335 0.0 2.0 0.05 0.03 0.03 94 1015.2
20260503044729 65 359 0.0 1.0 0.05 0.03 0.03 94 1015.3
20260503044227 65 0 0.0 1.0 0.00 0.02 0.02 94 1015.1
20260503043724 65 356 0.0 2.0 0.00 0.02 0.02 94 1014.5
20260503043221 66 31 2.0 4.0 0.07 0.02 0.02 94 1014.6
20260503042717 66 11 0.0 2.0 0.07 0.02 0.02 94 1014.4
20260503042214 66 332 1.0 2.0 0.00 0.01 0.01 94 1014.7
20260503041710 66 318 2.0 2.0 0.00 0.01 0.01 94 1014.5
20260503041208 66 28 0.0 1.0 0.05 0.01 0.01 94 1014.4
20260503040705 67 348 1.0 9.0 0.05 0.01 0.01 93 1014.2
20260503040203 68 328 1.0 3.0 0.07 0.00 0.00 93 1014.2
20260503035659 68 355 0.0 0.0 0.07 0.42 0.42 93 1014.2
20260503035157 68 355 0.0 2.0 0.00 0.41 0.41 93 1014.0
20260503034654 68 344 1.0 1.0 0.00 0.41 0.41 93 1013.6
20260503034151 68 349 0.0 0.0 0.00 0.41 0.41 93 1013.8
20260503033648 68 346 0.0 2.0 0.00 0.41 0.41 93 1013.4
20260503033146 68 342 0.0 2.0 0.00 0.41 0.41 92 1013.5
20260503032644 69 2 0.0 2.0 0.00 0.41 0.41 92 1013.1
20260503032142 69 352 0.0 1.0 0.00 0.41 0.41 91 1013.3
20260503031639 70 20 1.0 3.0 0.00 0.41 0.41 90 1013.0
20260503031137 71 122 1.0 3.0 0.00 0.41 0.41 90 1013.0
20260503030632 71 302 2.0 3.0 0.00 0.41 0.41 91 1013.1
20260503030129 71 340 0.0 0.0 0.00 0.41 0.41 91 1012.8
20260503025626 71 343 0.0 0.0 0.00 0.41 0.41 91 1012.8
20260503025124 71 333 0.0 0.0 0.00 0.41 0.41 91 1012.8
20260503024620 71 347 0.0 0.0 0.00 0.41 0.41 91 1013.0
20260503024117 71 336 1.0 1.0 0.00 0.41 0.41 91 1012.8
20260503023614 71 334 0.0 1.0 0.00 0.41 0.41 91 1012.6
20260503023112 71 342 0.0 2.0 0.00 0.41 0.41 91 1012.7
20260503022607 71 343 0.0 2.0 0.00 0.41 0.41 91 1012.5
20260503022102 71 342 0.0 1.0 0.00 0.41 0.41 91 1012.6
20260503021600 70 336 2.0 2.0 0.00 0.41 0.41 91 1012.4
20260503021056 70 323 1.0 1.0 0.00 0.41 0.41 91 1012.4
20260503020553 70 344 0.0 1.0 0.00 0.41 0.41 91 1012.4
20260503020050 70 345 0.0 0.0 0.00 0.41 0.41 91 1011.8
20260503015547 70 341 0.0 1.0 0.00 0.41 0.41 91 1011.5
20260503015044 70 347 0.0 0.0 0.00 0.41 0.41 90 1011.4
20260503014540 70 351 0.0 1.0 0.00 0.41 0.41 90 1011.4
20260503014038 70 340 0.0 1.0 0.00 0.41 0.41 90 1011.2
20260503013535 70 346 0.0 1.0 0.00 0.41 0.41 89 1011.4
20260503013033 70 345 0.0 1.0 0.00 0.41 0.41 89 1011.2
20260503012530 71 318 1.0 2.0 0.00 0.41 0.41 89 1011.2
20260503012026 71 346 1.0 2.0 0.00 0.41 0.41 89 1011.1
20260503011523 71 336 0.0 2.0 0.00 0.41 0.41 89 1011.2
20260503011020 71 333 1.0 4.0 0.00 0.41 0.41 88 1011.0
20260503010516 71 339 1.0 2.0 0.00 0.41 0.41 88 1011.0
20260503010014 71 344 0.0 1.0 0.00 0.41 0.41 88 1011.2
20260503005511 71 343 0.0 1.0 0.00 0.41 0.41 88 1011.1
20260503005008 71 321 2.0 4.0 0.00 0.41 0.41 88 1010.9
20260503004504 71 337 0.0 1.0 0.00 0.41 0.41 88 1010.7
20260503004002 71 310 1.0 2.0 0.00 0.41 0.41 88 1010.8
20260503003459 71 332 1.0 2.0 0.00 0.41 0.41 88 1011.0
20260503002956 71 292 2.0 3.0 0.00 0.41 0.41 87 1011.1
20260503002453 71 321 1.0 3.0 0.00 0.41 0.41 87 1010.7
20260503001949 70 339 1.0 3.0 0.00 0.41 0.41 88 1010.7
20260503001446 70 316 1.0 2.0 0.00 0.41 0.41 88 1010.4
20260503000943 70 342 0.0 2.0 0.00 0.41 0.41 88 1010.4
20260503000440 70 313 1.0 3.0 0.00 0.41 0.41 87 1010.3
20260502235938 70 339 1.0 2.0 0.00 0.41 0.41 87 1010.3
20260502235434 70 321 1.0 2.0 0.00 0.41 0.41 87 1010.0
20260502234932 70 316 1.0 2.0 0.00 0.41 0.41 87 1010.4
20260502234428 70 325 1.0 1.0 0.00 0.41 0.41 87 1010.2
20260502233925 70 310 1.0 3.0 0.00 0.41 0.41 87 1010.2
20260502233420 71 336 1.0 3.0 0.00 0.41 0.41 87 1010.3
20260502232918 71 330 1.0 2.0 0.00 0.41 0.41 86 1010.4
20260502232414 71 264 2.0 4.0 0.00 0.41 0.41 86 1010.5
20260502231911 71 326 1.0 3.0 0.00 0.41 0.41 85 1010.4
20260502231409 71 230 7.0 8.0 0.00 0.41 0.41 85 1010.4